Location: Dompnac
(44.5644°N, 4.1026°E)
Time: 13:24:47
(UTC+00:00)

Cosmos 2026 Rocket - Pass Details

Date: 22 January 2021
Orbit: 940 x 1000 km, 82.9° (Epoch: 28 February)

Event Time Altitude Azimuth Distance (km) Brightness Sun altitude
Rises 05:02:30 0° 357° (N) 3,708 7.0 -22.9°
Reaches altitude 10° 05:05:13 10° 5° (N) 2,763 6.4 -22.4°
Maximum altitude 05:11:09 40° 74° (ENE) 1,438 5.3 -21.3°
Drops below altitude 10° 05:17:04 10° 143° (SE) 2,764 7.0 -20.3°
Sets 05:19:46 0° 150° (SSE) 3,710 7.6 -19.8°
